Location: Sungai Dangang
(2.7500°N, 113.8333°E)
Time: 01:47:40
(UTC+00:00)

Ariane H10+ - Pass Details

Date: 04 October 2021
Orbit: 237 x 7755 km, 6.8° (Epoch: 21 October)

Event Time Altitude Azimuth Distance (km) Brightness Sun altitude
Exits shadow 21:43:10 - 264° (W) 5,418 5.7 -7.7°
Reaches altitude 10° 21:43:52 10° 264° (W) 5,310 5.6 -7.5°
Maximum altitude 22:05:06 89° 353° (N) 5,404 6.3 -2.2°
Drops below altitude 10° 23:04:59 10° 84° (E) 11,145 10.1 12.7°
Sets 23:14:29 0° 84° (E) 11,591 9.7 15.0°
